Regional Weather Roundup
Issued by NWS

Home | Current Version | Previous Version | Graphics & Text | Print | Product List | Glossary On
Versions: 1 2 3 4 5 6 7 8 9 10 11 12 13 14 15 16 17 18 19 20 21 22 23 24 25 26 27 28 29 30 31 32 33 34 35 36 37 38 39 40 41 42 43 44 45 46 47 48 49 50
000
ASUS45 KBOU 290407
RWRCO

WEATHER ROUNDUP FOR COLORADO
NATIONAL WEATHER SERVICE DENVER/BOULDER CO
900 PM MST WED JAN 28 2015

NOTE: "FAIR" INDICATES FEW OR NO CLOUDS BELOW 12000 FEET WITH NO
SIGNIFICANT WEATHER AND/OR OBSTRUCTIONS TO VISIBILITY.

COZ001>005-013-030-031-290500-
...NORTHWEST COLORADO...

CITY           SKY/WX    TMP DP  RH WIND       PRES   REMARKS
CRAIG          CLOUDY    34  31  88 CALM      30.32R
HAYDEN         CLOUDY    34  28  80 CALM      30.31S
MEEKER         CLEAR     29  24  82 E3        30.31R
MOUNT WERNER   NOT AVBL
STEAMBOAT SPGS CLOUDY    36  29  75 E5        30.31S
WALDEN         CLOUDY    34  27  75 S3        30.30S
$$

COZ006>008-011-290500-
...WEST CENTRAL VALLEYS...

CITY           SKY/WX    TMP DP  RH WIND       PRES   REMARKS
GRAND JUNCTION CLOUDY    40  32  73 CALM      30.27R
MONTROSE       CLEAR     34  26  72 SE9       30.31R WCI  27
EAGLE          CLEAR     34  27  75 VRB7      30.32R WCI  28
RIFLE          CLOUDY    38  30  73 SE3       30.29R
DELTA          NOT AVBL
NUCLA          CLEAR     34  27  75 E10       30.32R WCI  26
$$

COZ017>023-064>068-290500-
...SOUTHWEST COLORADO...

CITY           SKY/WX    TMP DP  RH WIND       PRES   REMARKS
DURANGO        MOCLDY    34  28  79 N7        30.28R WCI  28
CORTEZ         CLEAR     31  25  78 NE8       30.29R WCI  23
PAGOSA SPRINGS MOCLDY    32  25  74 CALM      30.31R
TELLURIDE      PTCLDY    31  23  73 CALM      30.35R
WOLF CREEK PAS NOT AVBL
$$

COZ009-010-012-014-032>034-037-058>063-290500-
...CENTRAL COLORADO...

CITY           SKY/WX    TMP DP  RH WIND       PRES   REMARKS
ASPEN          PTCLDY    29  22  75 S7        30.31R WCI  22
BUENA VISTA    PTCLDY    32  19  56 NW8       30.30R WCI  25
COPPER MTN     PTCLDY    23  18  80 W5        30.36S WCI  17
BERTHOUD PASS  CLOUDY    18  10  73 NW15G21   30.36S WCI   3
COTTONWOOD PAS PTCLDY    34  16  47 W7        30.33R WCI  28
GUNNISON       CLEAR     21  10  63 NE6       30.34R WCI  14
KREMMLING      CLOUDY    32  27  80 CALM      30.34R
LEADVILLE      CLEAR     17  11  77 NE7       30.32R WCI   8
MONARCH PASS   PTCLDY    21  16  79 MISG      30.46R
SALIDA         PTCLDY    34  20  57 W6        30.37R WCI  29
SUNLIGHT       PTCLDY    28  27  93 CALM        N/A
WILKERSON PASS MOCLDY    23  12  63 N9G17     30.36S WCI  13
$$

COZ069>075-290500-
...SAN LUIS VALLEY/SANGRE DE CRISTO MOUNTAINS...

CITY           SKY/WX    TMP DP  RH WIND       PRES   REMARKS
ALAMOSA        PTCLDY    30  20  66 NW8       30.29R WCI  22
LA VETA PASS   NOT AVBL
SAGUACHE       PTCLDY    30  21  69 NW13      30.31S WCI  20
$$

COZ035-036-038>040-290500-
...NORTHERN COLORADO FRONT RANGE...

CITY           SKY/WX    TMP DP  RH WIND       PRES   REMARKS
DENVER INTL AP PTCLDY    34  31  88 SE7       30.26R WCI  28
DMNS CITY PARK   N/A     39  32  74 E6        30.27R
AURORA         PTCLDY    36  33  88 E10       30.27R
FRONT RANGE AP NOT AVBL
ERIE MUNI ARPT CLEAR     40  32  74 SE6       30.26R
BOULDER MUN AP CLEAR     43  30  61 SE10      30.26R
CENTENNIAL     PTCLDY    36  32  85 E9        30.27R
BROOMFIELD     PTCLDY    39  32  75 E8        30.27R
FORT COLLINS   PTCLDY    43  30  61 N22G30    30.25R
LONGMONT       PTCLDY    42  29  60 SE6       30.27R
$$

COZ041-046-047-076>085-087-088-290500-
...PIKES PEAK/PALMER DIVIDE AND SOUTHERN FOOTHILLS...

CITY           SKY/WX    TMP DP  RH WIND       PRES   REMARKS
COLO. SPRINGS  PTCLDY    39  28  64 N12       30.27R
A. F. ACADEMY  PTCLDY    37  27  65 N10       30.28R
ELLICOTT       PTCLDY   N/A N/A N/A NE24G32   30.23R
FALCON         PTCLDY    35  31  84 N17G24    30.27R WCI  25
FORT CARSON    PTCLDY    39  25  58 NE9       30.25R
LIMON          CLEAR     34  30  85 W6        30.26R WCI  29
MONUMENT HILL  CLEAR     32  30  93 NE12G18   30.27S WCI  23
TRINIDAD       PTCLDY    44  26  49 NE13      30.24R
$$

COZ042>045-048>051-090-091-290500-
...NORTHEAST COLORADO...

CITY           SKY/WX    TMP DP  RH WIND       PRES   REMARKS
GREELEY ARPT   CLOUDY    45  28  53 N30G37    30.21R
AKRON          PTCLDY    40  34  79 NW21      30.22R
BURLINGTON     CLEAR     38  33  82 NW13      30.22R
WRAY           CLEAR     38  35  87 W7        30.20R
STERLING       MOCLDY    41  36  81 NW10      30.23R
HOLYOKE        CLEAR     43  36  75 W12       30.19R
FORT MORGAN    CLOUDY    43  31  63 N18       30.24S
$$

COZ086-089-092>099-290500-
...SOUTHEAST COLORADO...

CITY           SKY/WX    TMP DP  RH WIND       PRES   REMARKS
PUEBLO         PTCLDY    45  28  51 CALM      30.25R
LA JUNTA       PTCLDY    45  33  63 MISG      30.22R
LAMAR          PTCLDY    45  33  63 E6        30.17R
SPRINGFIELD      N/A     42  30  62 N7        30.21R
$$


USA.gov is the U.S. government's official web portal to all federal, state and local government web resources and services.